EXS96N EGNX-LGKF

Flight info

Callsign EXS96N
Flight time N/A
Altitude 37000
Route SAPCO Y53 DTY M605 BENSU Q70 BIG UL9 KONAN DCT KOK DCT SISGA DCT KOMOB M150 PITES DCT EDISA DCT PICWI DCT UTABA DCT BEMKI DCT ELMEM DCT DIRAB DCT VESAL DCT UPIRO DCT PEVAL DCT NAKIT DCT PUL DCT MINTU DCT SAL DCT SOMIG DCT AIOSA DCT ENOXA DCT LUPAL DCT LATAN UM872 ASTUS
Aircraft B738/M-SDE2E3FGHIRWXY/LB1

Departure

Time 2026-05-04 16:41
Airport East Midlands Airport (EGNX)

Arrival

Time N/A
Airport Kefallinia Airport (LGKF)
Time Latitude Longitude Altitude Speed Heading
2026-05-04 16:09 52.82709 -1.33209 299 ft 0 kts 178°
2026-05-04 16:30 52.82722 -1.33209 299 ft 4 kts 178°
2026-05-04 16:31 52.82769 -1.33220 301 ft 4 kts 124°
2026-05-04 16:31 52.82775 -1.33272 302 ft 0 kts 88°
2026-05-04 16:35 52.82783 -1.33186 300 ft 5 kts 61°
2026-05-04 16:35 52.82905 -1.33172 301 ft 10 kts 333°
2026-05-04 16:36 52.82923 -1.33280 303 ft 10 kts 268°
2026-05-04 16:36 52.82918 -1.33505 305 ft 10 kts 268°
2026-05-04 16:37 52.82913 -1.33737 303 ft 12 kts 268°
2026-05-04 16:37 52.82911 -1.33888 304 ft 15 kts 269°
2026-05-04 16:37 52.82907 -1.34311 304 ft 19 kts 271°
2026-05-04 16:38 52.82901 -1.34724 303 ft 17 kts 268°
2026-05-04 16:39 52.83021 -1.34937 304 ft 9 kts 359°
2026-05-04 16:39 52.83065 -1.34769 301 ft 9 kts 88°
2026-05-04 16:40 52.83072 -1.34391 300 ft 53 kts 88°
2026-05-04 16:40 52.83120 -1.31747 364 ft 165 kts 88°
2026-05-04 16:41 52.83139 -1.27603 1422 ft 200 kts 94°
2026-05-04 16:41 52.81584 -1.21302 3197 ft 206 kts 133°
2026-05-04 16:42 52.78295 -1.15720 4325 ft 254 kts 140°
2026-05-04 16:43 52.74890 -1.15036 5060 ft 265 kts 212°
2026-05-04 16:43 52.72152 -1.19063 5820 ft 267 kts 222°
2026-05-04 16:43 52.70753 -1.21025 6195 ft 269 kts 220°
2026-05-04 16:44 52.64873 -1.28778 7671 ft 272 kts 219°
2026-05-04 16:45 52.61890 -1.32645 8436 ft 274 kts 219°
2026-05-04 16:46 52.56794 -1.36620 9605 ft 282 kts 181°
2026-05-04 16:46 52.52962 -1.35145 10375 ft 288 kts 160°
2026-05-04 16:47 52.49232 -1.32574 11125 ft 293 kts 158°
2026-05-04 16:47 52.45338 -1.29868 11583 ft 324 kts 159°
2026-05-04 16:48 52.38714 -1.25345 13128 ft 352 kts 159°
2026-05-04 16:48 52.36443 -1.23806 13868 ft 354 kts 159°
2026-05-04 16:49 52.31847 -1.20702 15136 ft 359 kts 159°
2026-05-04 16:49 52.27196 -1.17572 16473 ft 363 kts 159°
2026-05-04 16:50 52.22523 -1.14432 17838 ft 367 kts 159°
2026-05-04 16:50 52.17744 -1.11318 18905 ft 373 kts 163°
2026-05-04 16:51 52.12629 -1.09535 19919 ft 378 kts 170°
2026-05-04 16:51 52.10069 -1.08759 20464 ft 380 kts 170°
2026-05-04 16:51 52.04815 -1.07100 21400 ft 388 kts 169°
2026-05-04 16:52 51.99504 -1.05372 22409 ft 392 kts 169°
2026-05-04 16:52 51.96821 -1.04488 22861 ft 396 kts 169°
2026-05-04 16:53 51.91380 -1.02678 23729 ft 402 kts 169°
2026-05-04 16:53 51.83113 -0.99950 24953 ft 407 kts 170°
2026-05-04 16:54 51.80329 -0.99055 25344 ft 409 kts 171°
2026-05-04 16:55 51.69163 -0.95490 26956 ft 412 kts 171°
2026-05-04 16:55 51.63513 -0.93688 27652 ft 416 kts 171°
2026-05-04 16:56 51.58304 -0.89641 28296 ft 430 kts 139°
2026-05-04 16:56 51.53915 -0.76906 29334 ft 445 kts 115°
2026-05-04 16:57 51.52770 -0.72257 29572 ft 448 kts 115°
2026-05-04 16:57 51.50447 -0.62924 30149 ft 451 kts 116°
2026-05-04 16:58 51.46860 -0.48943 31088 ft 450 kts 116°
2026-05-04 16:58 51.45662 -0.44326 31454 ft 448 kts 116°
2026-05-04 16:59 51.43263 -0.35126 32047 ft 447 kts 116°
2026-05-04 17:00 51.38483 -0.16883 33287 ft 443 kts 116°
2026-05-04 17:00 51.34898 -0.03287 34112 ft 441 kts 116°
2026-05-04 17:01 51.32763 0.05588 34520 ft 443 kts 106°
2026-05-04 17:01 51.31594 0.15182 34942 ft 444 kts 103°
2026-05-04 17:02 51.30484 0.24651 35224 ft 446 kts 104°
2026-05-04 17:02 51.29277 0.34334 35640 ft 445 kts 104°
2026-05-04 17:03 51.28691 0.39129 35784 ft 446 kts 103°
2026-05-04 17:03 51.28098 0.44044 35934 ft 446 kts 103°
2026-05-04 17:03 51.26925 0.53722 36218 ft 447 kts 104°
2026-05-04 17:04 51.25697 0.63474 36532 ft 447 kts 104°
2026-05-04 17:04 51.24404 0.73178 36859 ft 448 kts 104°
2026-05-04 17:05 51.23170 0.82942 36989 ft 451 kts 103°
2026-05-04 17:05 51.21940 0.92763 36987 ft 450 kts 104°
2026-05-04 17:06 51.20062 1.07398 36983 ft 448 kts 104°
2026-05-04 17:07 51.18571 1.18740 36987 ft 447 kts 104°
2026-05-04 17:07 51.16870 1.31614 36988 ft 446 kts 104°
2026-05-04 17:08 51.15670 1.46324 36971 ft 449 kts 96°
2026-05-04 17:09 51.15280 1.56245 36994 ft 449 kts 96°
2026-05-04 17:09 51.14831 1.66185 36991 ft 451 kts 97°
2026-05-04 17:10 51.13562 1.91147 36971 ft 455 kts 97°
2026-05-04 17:11 51.13126 1.99510 36988 ft 455 kts 97°
2026-05-04 17:12 51.12323 2.14602 36990 ft 457 kts 97°
2026-05-04 17:13 51.10941 2.39870 36969 ft 458 kts 98°
2026-05-04 17:14 51.09794 2.60029 36979 ft 456 kts 99°
2026-05-04 17:14 51.08140 2.69627 36978 ft 447 kts 119°
2026-05-04 17:15 51.06715 2.74015 36998 ft 445 kts 121°
2026-05-04 17:16 51.00840 2.91297 36982 ft 444 kts 121°
2026-05-04 17:17 50.95052 3.08547 36975 ft 443 kts 121°
2026-05-04 17:18 50.89264 3.25732 36966 ft 443 kts 121°
2026-05-04 17:19 50.83424 3.42947 36951 ft 444 kts 121°
2026-05-04 17:20 50.77549 3.60147 36949 ft 445 kts 122°
2026-05-04 17:20 50.73117 3.73045 36945 ft 446 kts 122°
2026-05-04 17:21 50.67170 3.90253 36946 ft 447 kts 122°
2026-05-04 17:22 50.64186 3.98849 36945 ft 447 kts 122°
2026-05-04 17:23 50.58175 4.16014 36953 ft 447 kts 122°
2026-05-04 17:24 50.53642 4.28838 36969 ft 447 kts 122°
2026-05-04 17:25 50.47585 4.45893 36971 ft 447 kts 123°
2026-05-04 17:26 50.41507 4.62895 36957 ft 448 kts 123°
2026-05-04 17:27 50.33848 4.84163 36959 ft 448 kts 123°
2026-05-04 17:28 50.27725 5.01042 36975 ft 444 kts 124°
2026-05-04 17:29 50.18561 5.26098 36974 ft 442 kts 124°
2026-05-04 17:31 50.10909 5.46834 36982 ft 440 kts 124°
2026-05-04 17:32 50.03229 5.67487 36995 ft 441 kts 124°
2026-05-04 17:33 49.97042 5.84015 36994 ft 444 kts 124°
2026-05-04 17:34 49.90789 6.00614 36981 ft 446 kts 125°
2026-05-04 17:35 49.83106 6.21579 36978 ft 450 kts 122°
2026-05-04 17:36 49.80260 6.30202 36966 ft 449 kts 122°
2026-05-04 17:36 49.77374 6.38782 36974 ft 448 kts 122°
2026-05-04 17:37 49.74477 6.47284 36968 ft 447 kts 122°
2026-05-04 17:37 49.71493 6.55680 36972 ft 444 kts 126°
2026-05-04 17:38 49.68248 6.63760 36981 ft 442 kts 127°
2026-05-04 17:38 49.64962 6.71782 36973 ft 442 kts 127°
2026-05-04 17:39 49.60074 6.83819 36971 ft 440 kts 126°
2026-05-04 17:39 49.56834 6.91824 36983 ft 440 kts 126°
2026-05-04 17:40 49.53592 6.99815 36984 ft 440 kts 126°
2026-05-04 17:40 49.50367 7.07741 36991 ft 440 kts 126°
2026-05-04 17:41 49.47111 7.15716 36996 ft 441 kts 126°
2026-05-04 17:41 49.43844 7.23695 36986 ft 441 kts 126°
2026-05-04 17:42 49.40565 7.31678 36993 ft 442 kts 127°
2026-05-04 17:42 49.37278 7.39655 36992 ft 443 kts 127°
2026-05-04 17:43 49.33980 7.47636 36994 ft 444 kts 127°
2026-05-04 17:43 49.30663 7.55639 36978 ft 445 kts 127°
2026-05-04 17:44 49.27340 7.63634 36973 ft 445 kts 127°
2026-05-04 17:44 49.24008 7.71626 36979 ft 446 kts 127°
2026-05-04 17:45 49.20662 7.79626 36998 ft 446 kts 127°
2026-05-04 17:45 49.17315 7.87608 36993 ft 446 kts 127°
2026-05-04 17:46 49.13955 7.95593 36993 ft 447 kts 127°
2026-05-04 17:46 49.10614 8.03513 36981 ft 446 kts 127°
2026-05-04 17:47 49.07226 8.11519 36984 ft 446 kts 127°
2026-05-04 17:47 49.03854 8.19467 36979 ft 446 kts 127°
2026-05-04 17:48 49.00501 8.27346 36981 ft 446 kts 127°